Location: Crescent
(42.8242°N, 73.7329°W)
Time: 12:43:23
(UTC+00:00)

Transit 4A - Pass Details

Date: 17 February 2026
Orbit: 863 x 978 km, 66.8° (Epoch: 17 March)

Event Time Altitude Azimuth Distance (km) Brightness Sun altitude
Rises 17:56:43 0° 326° (NW) 3,612 10.6 34.3°
Reaches altitude 10° 17:59:16 10° 324° (NW) 2,680 10.1 34.2°
Maximum altitude 18:05:27 65° 244° (WSW) 1,058 9.2 33.9°
Drops below altitude 10° 18:11:44 10° 164° (SSE) 2,713 11.3 33.5°
Sets 18:14:19 0° 161° (SSE) 3,661 11.7 33.4°
